Погода в Кечушеве

Россия / Республика Мордовия     54°44′28″N   46°06′51″E
темп.,
°C
ветер,
м/с
пор.,
м/с
влажн.,
%
обл.,
%
осадки,
мм/ч
давл.,
гПа
погр.,
м
6 марта, сб
сб600:00−10з479475 0.1 1011130
03:00−13з479537 0.1 1013107
06:00−15з339883 0.0 101434
09:00−13з239149 0.0 1016110
12:00−10юз23830 0.0 1016273
15:00−9зюз35870 0.0 1014328
18:00−12юз23930 0.0 101421
21:00−13зюз339616 0.0 101526
7 марта, вс
вс700:00−13зюз349782 0.1 101365
03:00−15зюз349890 0.1 101346
06:00−15юз349792 0.1 101372
09:00−12юз599592 0.1 1012273
12:00−9юз6108892 0.0 1009486
15:00−7ююз7128696 0.0 1006713
18:00−7ююз71588100 0.0 1002826
21:00−6ююз81693100 0.9 9981079
8 марта, пн
пн800:00−4ююз81595100 1.3 994983
03:00−7зюз9158398 1.8 995966
06:00−10юз8168886 0.0 996483
09:00−9юз8158377 0.0 997554
12:00−6юз8129289 0.2 9961017
15:00−4зюз8128694 0.7 9961145
18:00−7зюз61294100 0.5 998491
21:00−10зюз5119089 0.6 1000252
9 марта, вт
вт900:00−11зюз5119598 0.1 1002318
03:00−10з5119498 0.3 1003361
06:00−12зсз479697 0.3 1006205
09:00−12зсз589397 0.3 1008448
12:00−10зсз5788100 0.1 1010687
15:00−10зсз5787100 0.2 1011799
18:00−13зсз3596100 0.1 1012145
21:00−14зсз389599 0.3 1014281
10 марта, ср
ср1000:00−18зсз369892 0.1 1015125
03:00−21з3410091 0.1 101664
06:00−23з34100100 0.0 101753
09:00−21зсз359897 0.1 1017214
12:00−17зсз348897 0.0 1017457
15:00−16сз348798 0.0 1017590
18:00−21ссз229681 0.0 101720
21:00−25зсз119943 0.0 101920